Lapse_Rate
7.0 7.1 7.2 7.1 7.2 7.3 7.2 7.0 6.9 6.8 6.6 6.7 6.7 6.5 6.4 6.4 6.4 6.5 6.6 6.4 6.5 6.4 6.4 6.3 6.2 6.3 6.3 6.3 6.3 6.3 6.3 6.3 6.4 6.6 6.7 6.7 6.7 6.7 6.8 6.7 6.7 6.7 6.7
7.1 7.2 7.3 7.1 7.1 7.2 7.3 7.3 7.0 6.8 6.8 6.7 6.6 6.6 6.5 6.5 6.4 6.4 6.4 6.3 6.2 6.3 6.2 6.2 6.1 6.1 6.2 6.2 6.3 6.3 6.4 6.4 6.4 6.4 6.5 6.6 6.6 6.7 6.7 6.8 6.8 6.7 6.7
7.1 7.0 7.1 7.2 7.1 7.2 7.1 7.2 7.1 7.0 6.9 6.8 6.7 6.7 6.6 6.6 6.5 6.3 6.1 6.3 6.2 6.1 6.2 6.1 6.1 6.1 6.1 6.2 6.2 6.2 6.3 6.3 6.5 6.6 6.5 6.5 6.5 6.5 6.5 6.7 6.8 6.8 6.7
7.0 7.0 6.8 6.9 7.1 6.9 7.1 7.1 7.1 7.0 6.8 6.8 6.7 6.7 6.7 6.6 6.4 6.4 6.3 6.3 6.4 6.2 6.1 6.1 6.1 6.2 6.1 6.1 6.2 6.2 6.2 6.4 6.5 6.8 6.7 6.6 6.7 6.7 6.7 6.6 6.6 6.6 6.6
6.8 6.9 6.9 6.8 6.8 6.8 6.9 7.1 7.0 7.0 6.8 6.8 6.7 6.7 6.6 6.5 6.5 6.4 6.4 6.2 6.2 6.1 6.2 6.1 6.0 6.0 6.0 6.0 6.0 6.1 6.2 6.3 6.4 6.5 6.6 6.6 6.7 6.7 6.7 6.6 6.6 6.5 6.5
6.8 6.6 6.7 6.7 6.8 6.9 6.7 6.7 6.8 6.8 6.7 6.7 6.7 6.6 6.5 6.4 6.4 6.3 6.2 6.1 6.1 5.9 5.9 5.9 5.9 5.8 5.9 5.9 5.8 5.9 6.0 6.1 6.1 6.2 6.3 6.3 6.4 6.4 6.3 6.2 6.1 6.1 6.2
6.7 6.5 6.6 6.6 6.7 6.6 6.6 6.4 6.5 6.6 6.6 6.6 6.5 6.4 6.4 6.2 6.2 6.2 6.1 6.0 6.0 5.9 5.9 5.7 5.7 5.7 5.7 5.7 5.8 5.9 6.0 6.0 6.0 5.9 6.0 6.1 6.2 6.2 6.3 6.2 6.2 6.2 6.2
6.6 6.4 6.4 6.5 6.5 6.3 6.3 6.3 6.3 6.4 6.4 6.4 6.3 6.2 6.3 6.3 6.2 6.1 6.0 5.9 5.7 5.7 5.7 5.6 5.6 5.5 5.5 5.6 5.6 5.8 5.8 5.8 5.8 5.7 5.9 6.0 6.1 6.1 6.1 6.1 6.1 6.1 6.0
6.7 6.5 6.3 6.4 6.2 6.0 5.9 6.1 6.1 6.2 6.3 6.1 6.1 6.0 6.1 6.1 6.0 5.9 5.8 5.7 5.5 5.5 5.5 5.5 5.5 5.4 5.4 5.4 5.5 5.6 5.6 5.7 5.8 5.8 5.9 6.0 5.9 5.9 5.9 5.8 5.9 5.9 5.9
6.8 6.6 6.4 6.1 5.9 6.0 5.8 6.0 5.9 6.0 6.1 6.1 6.0 6.0 5.9 5.8 5.7 5.8 5.7 5.6 5.5 5.5 5.5 5.6 5.7 5.6 5.5 5.5 5.4 5.5 5.6 5.8 6.0 6.1 6.1 6.0 6.0 6.0 6.0 6.0 6.0 6.1 6.2
6.8 6.6 6.5 6.1 5.9 5.8 5.9 6.0 5.9 5.9 5.9 5.9 5.9 6.0 5.9 5.8 5.6 5.6 5.8 5.8 5.7 5.6 5.5 5.5 5.7 5.7 5.8 5.8 5.7 5.6 5.6 5.7 5.8 6.0 6.1 6.1 6.1 6.1 6.3 6.5 6.6 6.5 6.6
6.7 6.5 6.3 6.1 5.9 5.8 5.9 6.0 5.8 5.9 5.8 5.8 5.9 5.9 5.8 5.7 5.5 5.3 5.3 5.5 5.6 5.9 5.7 5.8 5.5 5.6 5.6 5.9 6.1 6.2 6.3 6.2 6.2 6.2 6.2 6.1 6.2 6.3 6.2 6.2 6.0 5.8 5.7
6.7 6.4 6.2 6.1 5.9 5.7 5.8 5.8 5.9 5.8 5.8 5.9 5.9 5.8 5.8 5.8 5.7 5.6 5.5 5.4 5.6 6.1 6.0 5.9 5.5 5.5 5.7 5.7 5.7 5.7 5.7 5.9 5.9 6.0 5.8 5.8 5.8 5.7 5.4 5.1 4.7 4.4 4.2
6.5 6.3 6.1 6.3 6.3 5.8 5.9 6.0 6.0 6.0 6.0 6.0 6.0 6.0 5.9 5.8 5.7 5.7 5.6 5.5 5.6 5.7 5.8 5.9 5.8 5.7 5.5 5.6 5.5 5.5 5.6 5.8 5.7 5.5 5.3 5.1 4.9 4.4 4.1 3.9 3.7 3.4 3.3
6.3 6.2 6.0 6.1 6.0 6.1 6.0 5.9 6.0 6.0 6.0 6.2 6.2 6.1 6.0 5.9 5.9 5.8 5.8 5.6 5.3 5.2 5.7 6.0 5.8 5.8 5.6 5.4 5.2 5.3 5.4 5.4 5.1 4.6 4.3 4.0 3.7 3.5 3.2 3.1 3.1 2.8 2.8
6.2 6.1 6.1 5.9 6.3 6.1 5.9 5.9 5.9 6.0 6.2 6.3 6.2 6.2 6.1 6.0 5.9 5.9 5.6 5.4 5.2 5.1 5.2 5.4 5.5 5.3 5.3 5.3 5.2 5.0 4.9 4.5 3.9 3.7 3.4 3.0 2.8 2.5 2.6 2.7 2.9 3.6 4.4
6.2 5.9 6.3 6.1 6.1 5.9 5.9 5.9 6.0 6.1 6.1 6.2 6.2 6.3 6.1 6.0 5.9 5.7 5.4 5.3 5.2 5.2 5.3 5.5 5.3 5.3 5.1 4.9 4.7 4.4 3.9 3.5 3.2 2.9 2.7 2.5 2.4 2.5 3.3 3.9 4.4 4.9 5.4
6.0 6.1 6.1 6.1 6.0 5.9 5.8 5.9 6.0 6.0 6.2 6.2 6.3 6.2 6.0 5.9 5.7 5.4 5.3 5.3 5.3 5.3 5.1 5.2 5.2 5.0 4.5 4.2 3.9 3.5 3.1 2.7 2.6 2.8 2.6 3.5 3.7 4.2 4.6 4.7 5.1 5.4 5.6
6.3 6.3 6.1 5.8 5.9 5.8 5.9 5.9 5.8 6.1 6.3 6.3 6.1 5.9 5.9 5.7 5.5 5.3 5.3 5.3 5.2 5.1 5.0 4.8 4.6 4.3 3.8 3.5 3.3 2.8 2.5 2.6 3.0 3.6 3.9 4.5 4.9 5.0 5.1 5.1 5.1 5.0 5.2
6.1 5.9 5.8 5.6 5.6 5.7 5.6 5.6 5.8 5.9 6.1 6.0 5.9 5.8 5.7 5.5 5.4 5.4 5.4 5.1 5.1 4.9 4.7 4.5 4.1 3.6 3.3 3.0 2.7 2.4 2.8 3.4 4.6 5.0 5.4 5.6 5.3 5.1 5.1 4.9 4.7 4.8 4.9
6.1 6.0 5.4 5.2 5.0 5.5 5.5 5.6 5.8 5.9 5.8 5.8 5.8 5.6 5.5 5.4 5.4 5.2 5.1 5.1 4.9 4.7 4.4 4.0 3.5 3.3 2.9 2.7 2.1 2.6 3.7 4.4 5.4 5.5 5.5 5.4 5.5 5.2 5.5 4.8 4.5 4.4 4.5
5.6 5.8 5.2 4.8 5.5 5.3 5.5 5.7 5.8 5.7 5.7 5.6 5.6 5.5 5.5 5.3 5.1 5.0 4.9 4.7 4.4 4.0 3.7 3.2 3.0 2.6 2.4 2.4 2.9 3.8 4.4 4.9 5.4 5.7 5.1 5.4 4.7 5.0 5.2 5.0 4.7 4.2 4.5
5.4 5.2 5.4 5.3 5.5 5.6 5.7 5.7 5.7 5.7 5.6 5.5 5.5 5.5 5.3 5.1 5.0 4.8 4.7 4.5 4.0 3.6 3.1 2.5 2.5 2.4 2.9 3.8 4.2 4.4 4.3 4.6 5.2 5.3 4.6 4.9 4.7 5.3 5.4 5.5 4.9 4.1 4.2
5.1 5.3 5.6 5.8 5.7 5.7 5.6 5.6 5.6 5.6 5.5 5.5 5.5 5.1 5.1 5.0 4.9 4.6 4.3 4.1 3.8 3.2 2.6 2.8 2.8 3.3 4.1 4.5 4.3 4.4 4.7 4.8 5.4 5.4 4.8 4.8 5.2 5.8 6.1 6.2 5.4 4.6 4.1
5.4 5.7 5.6 5.5 5.5 5.7 5.5 5.4 5.5 5.6 5.6 5.3 5.1 5.0 4.9 4.8 4.5 4.2 3.9 3.5 3.2 3.1 3.0 3.2 3.8 4.3 4.3 4.4 4.5 4.6 4.9 5.3 5.7 6.0 5.7 5.0 5.9 6.2 6.6 6.9 5.9 5.1 4.4
5.6 5.4 5.5 5.6 5.4 5.4 5.5 5.5 5.4 5.3 5.2 5.3 5.0 4.8 4.5 4.2 3.9 3.6 3.3 3.2 3.1 3.3 3.8 4.5 4.8 4.6 4.6 4.7 4.7 4.7 4.9 5.2 5.3 6.1 5.5 5.3 6.0 5.8 6.6 7.5 6.9 5.6 5.0
Wind_Speed
5 8 8 10 10 6 2 3 5 5 5 5 6 5 6 7 8 12 13 15 11 9 9 10 10 10 10 10 11 11 11 11 11 12 13 13 13 14 14 14 12 11 11
7 4 4 6 7 6 3 6 5 3 3 4 3 4 4 6 5 8 12 12 11 8 8 8 9 9 10 11 11 12 12 12 12 12 14 14 15 15 15 14 13 12 12
10 8 4 5 5 7 6 7 5 5 3 3 4 2 4 4 4 3 12 11 10 8 6 5 7 9 10 12 12 13 12 12 13 13 14 16 15 16 16 16 16 15 14
17 10 5 5 8 4 7 4 3 2 3 4 3 4 2 1 1 4 7 8 8 5 3 3 5 8 8 12 13 13 13 13 14 15 14 16 16 17 18 17 18 17 17
17 11 5 7 12 4 4 3 3 3 3 3 4 2 3 2 2 4 4 7 4 4 3 1 4 9 7 13 13 14 13 13 15 14 15 16 17 18 18 19 19 19 20
16 12 8 8 10 5 4 3 4 3 3 2 3 3 2 1 2 2 2 4 4 6 2 2 5 7 11 13 14 14 12 16 14 14 16 17 18 19 19 20 20 20 21
15 12 5 6 7 5 5 5 3 4 4 4 2 3 1 2 2 2 3 2 2 5 4 2 5 8 8 10 12 15 14 13 14 15 16 19 21 22 22 23 24 24 25
13 11 7 6 7 5 6 5 4 2 2 4 2 1 2 3 3 3 1 2 1 1 1 2 5 6 6 7 11 14 13 14 16 17 19 23 24 24 24 25 26 27 28
12 11 9 7 7 5 5 4 4 4 3 2 4 2 2 1 2 2 1 2 1 1 2 5 6 4 4 9 12 8 11 14 16 17 22 25 26 27 27 28 28 29 30
9 12 12 10 7 5 6 4 4 3 3 3 1 2 2 3 1 3 3 3 4 3 4 4 7 6 7 9 9 9 13 16 17 21 25 28 29 28 28 29 30 30 31
8 12 13 10 8 6 5 6 5 4 3 3 2 1 1 0 3 3 4 3 4 4 4 4 6 8 12 10 10 8 15 18 20 25 29 30 29 30 31 31 30 31 31
4 6 11 8 9 7 6 5 5 5 4 4 2 2 2 1 0 0 2 3 5 4 3 5 5 8 12 15 11 9 13 17 23 28 28 30 31 31 31 31 32 33 33
6 9 8 7 6 7 6 6 6 5 4 3 3 1 1 0 0 1 1 3 3 3 3 4 4 9 10 6 6 11 15 22 24 28 31 32 31 31 33 33 33 33 33
7 9 10 9 8 9 7 6 4 4 5 3 3 1 0 2 1 0 1 1 5 3 4 6 5 7 11 14 16 21 14 20 27 31 31 32 32 33 34 35 33 34 33
9 10 10 10 8 7 6 6 4 5 3 3 2 2 2 2 2 2 1 1 3 5 8 2 3 10 13 16 17 19 17 22 30 31 31 34 36 35 34 34 34 34 33
13 12 11 10 7 7 7 6 4 4 3 1 2 1 1 1 2 2 2 2 2 3 8 4 6 5 11 14 17 23 22 29 26 31 35 35 35 35 33 33 34 34 35
13 12 10 10 7 7 6 5 5 4 3 2 0 2 3 2 3 3 2 3 3 3 8 9 7 7 4 7 14 16 19 19 21 28 33 34 31 32 35 35 35 35 36
11 11 10 9 7 6 6 5 3 3 3 1 2 2 3 2 3 3 3 5 3 4 5 13 9 8 6 8 10 13 12 20 20 28 29 31 34 34 35 36 35 35 34
11 10 10 8 7 6 6 4 3 1 1 2 3 2 3 3 4 3 4 4 3 6 6 7 10 7 9 9 11 10 10 10 19 23 29 28 35 35 34 37 35 35 34
11 10 8 7 6 6 5 3 2 1 3 3 3 3 3 4 5 4 4 5 6 5 6 7 8 9 9 9 8 9 11 7 9 14 24 28 30 32 34 33 35 35 33
9 10 9 7 5 5 4 4 4 4 4 5 5 5 4 5 11 12 6 4 5 5 5 6 9 11 11 5 11 9 9 10 12 11 11 7 10 12 17 27 28 31 31
9 9 8 6 5 4 7 3 2 3 4 5 5 5 4 8 9 13 15 18 15 9 8 9 10 10 13 10 8 7 10 12 13 8 5 12 10 13 11 15 27 33 34
8 8 6 5 5 5 5 2 4 3 4 5 6 5 5 4 8 6 11 17 15 18 19 15 14 12 14 12 8 10 13 13 12 11 10 12 11 13 11 15 30 33 33
7 6 5 5 4 3 5 2 5 4 5 6 6 6 5 6 6 9 6 5 6 6 9 9 12 12 10 12 14 13 13 12 11 11 8 12 11 13 14 11 29 35 32
5 5 4 4 2 4 4 2 5 4 5 6 6 6 6 6 11 18 8 5 7 8 14 23 26 27 28 30 23 11 10 10 13 12 9 9 11 12 13 14 13 24 25
5 4 3 2 3 1 3 4 5 2 4 4 5 6 14 13 19 19 12 10 11 10 11 11 9 13 17 12 22 10 9 10 11 13 7 6 10 8 8 7 7 10 10
Wind_Direction
177 193 140 115 107 119 176 128 80 66 67 32 35 39 16 12 35 108 98 89 76 70 65 55 50 42 30 24 17 10 2 354 351 355 354 349 345 345 341 334 330 329 331
179 123 107 99 104 119 101 84 75 64 50 49 9 24 41 16 44 99 120 109 101 87 72 55 40 30 18 12 6 358 351 345 338 340 343 340 337 334 332 328 320 317 319
130 112 105 111 148 163 150 94 82 64 32 28 1 348 82 37 19 80 123 130 125 122 105 68 31 9 1 357 353 350 347 343 340 332 334 334 329 328 324 321 314 308 307
125 114 119 137 155 172 110 89 63 62 55 43 2 321 33 103 175 110 101 103 127 130 110 79 32 356 347 346 344 345 342 341 337 333 328 328 326 324 319 316 312 306 302
134 129 132 148 152 144 106 122 69 84 52 15 311 317 57 15 271 127 129 124 139 96 41 292 350 332 322 335 337 335 337 338 334 333 330 327 324 322 318 313 310 304 301
141 131 141 156 147 119 113 102 112 78 74 351 308 325 153 171 95 130 182 161 172 141 157 341 292 351 353 334 331 331 331 329 331 332 331 327 323 319 314 309 305 302 298
133 142 159 141 134 137 146 133 110 99 27 347 28 350 277 155 171 216 198 209 98 171 189 281 33 3 342 330 329 320 320 323 327 325 327 328 323 318 313 308 304 300 296
148 157 148 137 124 116 112 112 123 116 96 31 66 273 1 335 344 228 158 144 39 145 81 30 349 319 318 333 328 311 317 320 317 319 324 325 321 316 310 305 301 297 294
157 149 136 125 121 119 125 119 109 103 134 31 65 135 33 284 322 334 223 98 332 350 299 298 279 279 311 320 308 304 312 308 308 308 317 318 315 310 306 302 300 298 295
147 139 128 126 119 123 121 130 116 112 105 128 54 54 91 138 121 329 337 331 329 332 327 326 305 293 297 293 287 307 307 304 302 307 312 313 309 306 304 301 298 297 298
144 139 130 124 125 127 126 121 117 102 85 123 117 73 17 232 210 181 278 299 338 333 324 313 309 295 291 278 277 289 299 302 305 309 310 306 305 304 301 301 303 302 299
154 131 127 127 126 115 127 130 114 108 105 95 85 102 156 162 294 342 300 308 280 288 319 304 287 284 279 282 263 289 300 298 301 302 303 301 301 301 303 303 300 299 298
157 144 125 121 120 120 136 133 126 128 120 102 104 67 31 323 206 232 274 286 284 302 287 279 287 313 310 315 316 313 309 304 305 303 301 300 301 304 304 301 299 296 296
150 142 129 129 125 131 138 130 125 129 126 135 135 116 325 311 318 246 221 282 305 266 301 275 319 299 346 332 325 317 318 312 304 301 299 300 304 303 303 297 296 295 293
150 138 127 128 136 135 143 140 138 138 135 155 166 183 209 259 312 306 302 228 224 297 303 285 308 332 325 323 319 317 311 305 301 300 304 303 301 298 298 300 297 295 292
145 134 128 132 130 133 131 125 121 120 121 143 164 137 300 293 320 318 287 278 263 253 286 309 298 295 300 299 310 307 300 298 296 298 301 299 300 299 298 295 294 294 289
138 131 129 130 134 137 136 128 121 131 156 207 262 233 264 284 277 278 287 278 271 264 281 293 293 291 285 300 300 286 293 290 295 293 296 298 296 298 299 296 296 294 291
131 127 130 131 130 133 125 121 137 138 176 228 275 299 292 304 309 292 283 281 270 278 283 295 305 304 297 297 301 297 292 293 288 291 292 300 300 299 298 296 295 292 287
124 123 121 129 121 122 114 106 94 36 350 289 268 263 271 283 285 281 285 293 305 300 285 299 302 302 300 297 291 287 286 287 290 298 299 300 298 297 294 298 294 294 296
117 111 104 104 111 107 105 104 87 326 299 295 298 280 271 260 260 271 274 268 271 274 285 286 292 296 290 288 290 298 297 288 299 297 294 292 290 292 295 296 297 295 293
111 107 112 101 100 119 99 58 32 0 335 325 320 300 286 288 298 294 289 255 262 271 274 281 291 298 294 299 298 295 292 301 291 291 288 285 291 291 289 289 290 292 291
111 119 106 105 121 109 108 85 35 341 322 319 311 302 302 297 293 306 308 304 301 303 306 304 299 297 297 298 296 296 293 296 296 284 290 295 290 287 285 283 287 292 296
118 100 122 147 126 125 119 63 346 341 318 298 285 286 283 285 305 280 283 290 291 292 299 302 299 293 293 298 290 288 284 281 284 296 292 289 291 288 288 286 292 291 291
129 131 119 116 116 134 140 66 343 338 311 297 292 285 277 284 280 295 276 264 268 270 284 283 287 291 286 294 294 289 291 290 286 289 285 286 294 289 293 288 288 291 291
109 104 113 110 109 71 137 25 1 334 321 310 304 328 323 307 298 305 315 294 287 290 293 300 299 299 301 305 303 306 299 301 295 293 292 287 293 294 292 288 278 279 285
100 97 97 97 127 192 305 1 350 339 314 310 327 317 308 314 315 314 312 306 304 304 299 289 300 301 298 286 301 298 298 293 292 298 289 297 297 304 301 272 276 290 281